Simultaneous Nadir Overpasses (SNOs) Predictions

Prediction of SNOs between METOP-C and LANDSAT-8 Satellite Orbit:

Table of predicted SNOs for the next 14.0 days since TLE Epoch: 7/6/2019
Index Date (METOP-C) Time (METOP-C) Lat,Lon (METOP-C) SZA (METOP-C ) Date (LANDSAT-8) Time (LANDSAT-8) Lat,Lon (LANDSAT-8) SZA (LANDSAT-8 ) Distance(km) Time Diff (sec)
1 07/08/2019 03:29:15 81.12, 167.47 60.64 07/08/2019 03:30:19 81.12, 167.35 60.65 2.19 64
2 07/08/2019 04:19:55 -81.13, -24.85 119.32 07/08/2019 04:19:45 -81.13, -24.71 119.31 2.43 10
3 07/10/2019 23:03:38 81.11,-126.48 60.92 07/10/2019 23:04:34 81.11,-126.29 60.96 3.28 56
4 07/10/2019 23:54:17 -81.13, 41.55 119.00 07/10/2019 23:54:00 -81.13, 41.68 118.99 2.20 17
5 07/13/2019 18:38:00 81.12, -59.68 61.34 07/13/2019 18:38:49 81.13, -59.58 61.38 1.80 49
6 07/13/2019 19:28:39 -81.14, 108.32 118.57 07/13/2019 19:28:15 -81.15, 108.41 118.57 1.56 24
7 07/16/2019 14:12:23 81.12, 6.74 61.77 07/16/2019 14:13:05 81.12, 6.74 61.79 0.26 42
8 07/16/2019 15:03:02 -81.14, 174.72 118.14 07/16/2019 15:02:31 -81.14, 174.75 118.15 0.56 31
9 07/19/2019 09:46:44 81.14, 73.54 62.30 07/19/2019 09:47:19 81.13, 73.42 62.30 2.16 35




NCC Satellite Simultaneous Nadir Overpasses (SNOs) Prediction Service
